Regional Weather Roundup
Issued by NWS Green Bay, WI

Home | Current Version | Previous Version | Text Only | Print | Product List | Glossary On
Versions: 1 2 3 4 5 6 7 8 9 10 11 12 13 14 15 16 17 18 19 20 21 22 23 24 25 26 27 28 29 30 31 32 33 34 35 36 37 38 39 40 41 42 43 44 45 46 47 48 49 50
764
ASUS43 KGRB 260300
RWRGRB

NORTH-CENTRAL AND NORTHEAST WISCONSIN REGIONAL WEATHER ROUNDUP
NATIONAL WEATHER SERVICE GREEN BAY WI
1000 PM CDT WED MAY 25 2016

WIZ005-009-010>012-018-019-260400-
NORTH CENTRAL WISCONSIN

CITY           SKY/WX    TMP DP  RH WIND       PRES   REMARKS
IRONWOOD       CLOUDY    48  48 100 SW5       29.91S
MANITOWISH WTR NOT AVBL
ARBOR VITAE    NOT AVBL
EAGLE RIVER    NOT AVBL
LAND O LAKES   NOT AVBL
RHINELANDER    LGT RAIN  61  58  90 SE17      29.88S FOG
PHILLIPS       NOT AVBL
ANTIGO         NOT AVBL
TOMAHAWK       NOT AVBL
MERRILL        NOT AVBL
$$

WIZ013-073-260400-
NORTHEAST WISCONSIN

CITY           SKY/WX    TMP DP  RH WIND       PRES   REMARKS
IRON MOUNTAIN  LGT RAIN  60  58  92 CALM      29.92R
MARINETTE      LGT RAIN  57  55  93 E6        29.92F
$$

WIZ017-030-035>037-045-260400-
CENTRAL WISCONSIN

CITY           SKY/WX    TMP DP  RH WIND       PRES   REMARKS
MEDFORD        NOT AVBL
WAUSAU         CLOUDY    64 N/A N/A SE5       29.86R
MOSINEE        MOCLDY    63  63 100 S8        29.88R
MARSHFIELD     LGT RAIN  64  61  90 SW5       29.87R
WISC RAPIDS    MOCLDY    63  61  93 S7        29.89R
STEVENS POINT  NOT AVBL
WAUPACA        NOT AVBL
SHAWANO        NOT AVBL
CLINTONVILLE   NOT AVBL
WAUTOMA        CLOUDY    62  61  96 E3        29.90S
$$

WIZ038-039-048-051-260400-
FOX VALLEY

CITY           SKY/WX    TMP DP  RH WIND       PRES   REMARKS
NWS GREEN BAY  CLOUDY    60  58  92 E7        29.92R
APPLETON       LGT RAIN  59  59 100 E7        29.89S
OSHKOSH        LGT RAIN  60  58  92 SE7       29.90F FOG
FOND DU LAC    LGT RAIN  62  60  93 NW6       29.92R FOG
$$

WIZ022-050-052-260400-
EAST CENTRAL WISCONSIN

CITY           SKY/WX    TMP DP  RH WIND       PRES   REMARKS
EPHRAIM        NOT AVBL
STURGEON BAY   NOT AVBL
MANITOWOC      NOT AVBL
SHEBOYGAN      LGT RAIN  56  55  97 N3        29.94R FOG
$$

LMZ563-521-522-541>543-260400-
LAKESHORE

STATION/POSITION TIME  TEMP    WIND        PRES    VSBY  WAVE
                       AIR SEA DIR/SP/G                  HT/PER
                 (UTC) (F)     (DEG/KT/KT) (MB)    (MI)  (FT/S)
SHEBOYGAN LKSHOR 0200   52      80/  2/  3 1014.1R
KEWAUNEE LKSHORE 0200          290/  1/  4 1013.0R
ALGOMA MARINA    0217             CALM       N/A
NORTHPORT PIER   0200   55     120/  4/  7 1013.2F
N MID LAKE BUOY  0150   50 45  110/  8/ 10 1013.3F         1
SISTER BAY LKSHO 0204   61     110/ 10/ 14   N/A
CHAMBERS ISLAND  0240   57      60/  4/  5 1013.2F
MENOMINEE LKSHOR 0200           10/  5/  6 1012.1R
$$




USA.gov is the U.S. government's official web portal to all federal, state and local government web resources and services.